AA6MV Weather Reports


time (UTC)temp
C
wind
direction
speed
KPH
gust
KPH
rain 1hr
cm
rain 24hr
cm
rain mn
cm
humidity
%
barometer
mb
20260508183016 26 102 4.8 14.5 0.00 0.00 0.00 14 1006.6
20260508181520 26 84 3.2 17.7 0.00 0.00 0.00 15 1006.7
20260508180010 26 84 4.8 14.5 0.00 0.00 0.00 16 1006.9
20260508174507 25 100 1.6 11.3 0.00 0.00 0.00 17 1007.1
20260508173058 25 129 3.2 16.1 0.00 0.00 0.00 18 1007.1
20260508173021 25 83 1.6 16.1 0.00 0.00 0.00 19 1007.1
20260508170051 23 80 4.8 12.9 0.00 0.00 0.00 19 1007.5
20260508164549 23 80 4.8 11.3 0.00 0.00 0.00 20 1007.5
20260508163002 23 77 3.2 14.5 0.00 0.00 0.00 21 1007.6
20260508161618 22 93 4.8 17.7 0.00 0.00 0.00 21 1007.7
20260508160056 22 122 1.6 9.7 0.00 0.00 0.00 23 1007.7
20260508153002 20 87 3.2 9.7 0.00 0.00 0.00 27 1007.8
20260508151608 20 91 4.8 11.3 0.00 0.00 0.00 28 1007.9
20260508151502 20 77 3.2 11.3 0.00 0.00 0.00 29 1007.9
20260508150051 18 73 3.2 8.0 0.00 0.00 0.00 32 1007.9
20260508144549 17 82 0.0 0.0 0.00 0.00 0.00 34 1008.0
20260508143048 17 50 0.0 0.0 0.00 0.00 0.00 36 1007.9
20260508141542 15 75 0.0 0.0 0.00 0.00 0.00 39 1008.0
20260508140041 13 33 0.0 0.0 0.00 0.00 0.00 47 1007.9
20260508134537 11 33 0.0 0.0 0.00 0.00 0.00 55 1007.9
20260508133053 10 33 0.0 0.0 0.00 0.00 0.00 56 1007.8
20260508131532 8 33 0.0 0.0 0.00 0.00 0.00 56 1007.6
20260508130050 8 33 0.0 0.0 0.00 0.00 0.00 54 1007.6
20260508124548 8 38 0.0 0.0 0.00 0.00 0.00 53 1007.4
20260508123057 8 40 0.0 0.0 0.00 0.00 0.00 52 1007.1
20260508121551 9 40 0.0 0.0 0.00 0.00 0.00 50 1006.9
20260508120040 9 40 0.0 0.0 0.00 0.00 0.00 49 1006.9
20260508114538 9 40 0.0 0.0 0.00 0.00 0.00 48 1006.9
20260508113002 10 40 0.0 0.0 0.00 0.00 0.00 47 1006.9
20260508111606 10 39 0.0 0.0 0.00 0.00 0.00 45 1006.9
20260508104551 11 39 0.0 0.0 0.00 0.00 0.00 42 1006.9
20260508101551 12 39 0.0 0.0 0.00 0.00 0.00 41 1006.7
20260508100049 12 40 0.0 0.0 0.00 0.00 0.00 40 1006.7
20260508094534 12 40 0.0 0.0 0.00 0.00 0.00 40 1006.7
20260508093030 12 39 0.0 0.0 0.00 0.00 0.00 38 1006.8
20260508091528 13 39 0.0 0.0 0.00 0.00 0.00 37 1006.9
20260508084506 15 39 0.0 0.0 0.00 0.00 0.00 35 1006.9
20260508083004 15 31 0.0 0.0 0.00 0.00 0.00 35 1007.1
20260508074535 15 153 0.0 0.0 0.00 0.00 0.00 35 1007.6
20260508073030 15 154 0.0 0.0 0.00 0.00 0.00 34 1007.7
20260508071532 15 126 0.0 0.0 0.00 0.00 0.00 34 1008.0
20260508064534 15 118 0.0 0.0 0.00 0.00 0.00 34 1007.9
20260508063033 16 118 0.0 0.0 0.00 0.00 0.00 33 1007.8
20260508061640 16 118 0.0 0.0 0.00 0.00 0.00 33 1007.7
20260508054541 16 118 0.0 0.0 0.00 0.00 0.00 32 1007.8
20260508053044 16 117 0.0 0.0 0.00 0.00 0.00 31 1008.1
20260508051531 17 112 0.0 0.0 0.00 0.00 0.00 31 1008.1
20260508044624 17 112 0.0 0.0 0.00 0.00 0.00 30 1008.0
20260508043012 18 101 0.0 0.0 0.00 0.00 0.00 29 1008.1
20260508041507 18 102 0.0 1.6 0.00 0.00 0.00 28 1007.7
20260508034538 19 139 0.0 6.4 0.00 0.00 0.00 25 1007.5
20260508033141 19 107 0.0 0.0 0.00 0.00 0.00 24 1007.6
20260508031525 19 99 0.0 1.6 0.00 0.00 0.00 23 1007.2
20260508024553 19 7 0.0 0.0 0.00 0.00 0.00 24 1006.5
20260508023059 20 7 0.0 0.0 0.00 0.00 0.00 21 1005.8
20260508021553 20 7 0.0 0.0 0.00 0.00 0.00 19 1005.4
20260508020145 21 7 0.0 0.0 0.00 0.00 0.00 19 1005.0
20260508014554 21 7 0.0 6.4 0.00 0.00 0.00 18 1004.7
20260508013053 21 10 4.8 9.7 0.00 0.00 0.00 17 1004.4
20260508011604 22 6 4.8 14.5 0.00 0.00 0.00 16 1004.5
20260508010153 22 360 6.4 16.1 0.00 0.00 0.00 15 1004.3
20260508004535 23 7 6.4 16.1 0.00 0.00 0.00 15 1004.2
20260508003035 24 359 1.6 14.5 0.00 0.00 0.00 14 1004.1
20260508001533 25 26 9.7 20.9 0.00 0.00 0.00 12 1003.8
20260508000133 26 42 4.8 20.9 0.00 0.00 0.00 13 1003.6
20260507234517 26 312 0.0 6.4 0.00 0.00 0.00 12 1003.5
20260507233007 26 14 0.0 9.7 0.00 0.00 0.00 12 1003.7
20260507231505 25 291 0.0 1.6 0.00 0.00 0.00 13 1003.7
20260507224530 26 221 0.0 16.1 0.00 0.00 0.00 13 1003.9
20260507223027 26 360 0.0 9.7 0.00 0.00 0.00 12 1004.0
20260507221530 27 17 0.0 0.0 0.00 0.00 0.00 12 1004.1
20260507220124 27 260 19.3 53.1 0.00 0.00 0.00 12 1003.8
20260507214559 26 272 1.6 16.1 0.00 0.00 0.00 12 1004.5
20260507213050 26 316 9.7 19.3 0.00 0.00 0.00 13 1004.6
20260507211546 26 266 6.4 12.9 0.00 0.00 0.00 14 1005.0
20260507210149 26 292 4.8 22.5 0.00 0.00 0.00 14 1005.3
20260507204540 26 257 9.7 19.3 0.00 0.00 0.00 13 1005.4
20260507203041 26 1 3.2 14.5 0.00 0.00 0.00 14 1005.6
20260507201538 26 324 1.6 14.5 0.00 0.00 0.00 15 1005.7
20260507194530 25 344 4.8 12.9 0.00 0.00 0.00 16 1006.1
20260507193032 25 221 11.3 25.7 0.00 0.00 0.00 16 1006.5
20260507191529 25 236 8.0 20.9 0.00 0.00 0.00 17 1006.7
20260507190022 24 265 11.3 20.9 0.00 0.00 0.00 17 1006.9
20260507184539 24 276 14.5 24.1 0.00 0.00 0.00 17 1007.1